Regional Weather Roundup
Issued by NWS

Home | Current Version | Previous Version | Graphics & Text | Print | Product List | Glossary On
Versions: 1 2 3 4 5 6 7 8 9 10 11 12 13 14 15 16 17 18 19 20 21 22 23 24 25 26 27 28 29 30 31 32 33 34 35 36 37 38 39 40 41 42 43 44 45 46 47 48 49 50
000
ASUS43 KMPX 012010
RWRMN
WEATHER ROUNDUP FOR MINNESOTA
NATIONAL WEATHER SERVICE TWIN CITIES/CHANHASSEN MN
300 PM CDT FRI AUG 01 2014


NOTE: "FAIR" INDICATES FEW OR NO CLOUDS BELOW 12,000 FEET WITH NO
SIGNIFICANT WEATHER AND/OR OBSTRUCTIONS TO VISIBILITY. N/A MEANS
CURRENT SKY AND/OR WEATHER CONDITIONS ARE NOT AVAILABLE.

MNZ060>063-068>070-012100-
   Twin Cities Metro

CITY           SKY/WX    TMP DP  RH WIND       PRES   REMARKS
TWIN CITIES    MOSUNNY   84  56  38 NW7       30.05F
ST PAUL        MOSUNNY   82  58  43 NE6       30.05F
CRYSTAL        MOSUNNY   84  56  38 VRB3      30.04F
BLAINE         MOSUNNY   84  57  39 NE3       30.06F
LAKEVILLE      SUNNY     81  59  47 SW3       30.07S
EDEN PRAIRIE   SUNNY     84  57  39 CALM      30.05F
SOUTH ST PAUL  MOSUNNY   84  56  38 CALM      30.05F
LAKE ELMO      FAIR      81  59  47 CALM      30.07S
$$
MNZ001>005-007-008-013>017-022>024-027-028-012100-
   Northwest Minnesota

CITY           SKY/WX    TMP DP  RH WIND       PRES   REMARKS
BEMIDJI        MOSUNNY   79  56  44 N8        30.08R
HALLOCK        MOSUNNY   81  59  47 N3        30.06F
ROSEAU         MOSUNNY   79  55  44 CALM      30.08S
WARROAD        SUNNY     75  59  57 E6        30.09S
THIEF RVR FALL MOSUNNY   79  54  41 NW8       30.08S
CROOKSTON      MOSUNNY   79  57  47 N7        30.08S
FOSSTON        MOSUNNY   81  61  50 N6        30.09S
DETROIT LAKES  SUNNY     79  55  44 N6        30.09F
MOORHEAD       MOSUNNY   81  61  50 N8        30.08S
PARK RAPIDS    MOSUNNY   79  52  38 W7        30.07S
$$
MNZ006-009>011-018-025>026-012100-
   North Central Minnesota

CITY           SKY/WX    TMP DP  RH WIND       PRES   REMARKS
BAUDETTE       SUNNY     79  52  38 NW8       30.09S
FLAG ISLAND    SUNNY     75  46  35 CALM      30.07S
INTL FALLS     SUNNY     78  51  38 NE5       30.07R
WASKISH        SUNNY     79  61  53 CALM      30.07S
BIG FORK       SUNNY    N/A N/A N/A N5        30.07S
LONGVILLE      SUNNY     79  57  47 W6        30.07S
GRAND RAPIDS   SUNNY     79  55  44 W6        30.06F
CRANE LAKE     SUNNY     75  48  38 NW6       30.08S
ORR            SUNNY     77  52  41 CALM      30.05S
COOK           MOSUNNY   79  55  44 W7        30.07S
$$
MNZ012-019>021-037-012100-
   Northeast Minnesota

CITY           SKY/WX    TMP DP  RH WIND       PRES   REMARKS
DULUTH         MOSUNNY   77  56  48 SE9       30.07S
ELY            MOSUNNY   75  52  43 CALM      30.07S
HIBBING        PTSUNNY   80  56  43 N6        30.06S
EVELETH        PTSUNNY   81  54  39 NE5       30.07F
DULUTH HARBOR  MOSUNNY   64  55  72 E5        30.07F
TWO HARBORS    MOSUNNY   72  54  53 SE6       30.06F
SILVER BAY     MOSUNNY   70  55  60 SE5       30.07R
GRAND MARAIS     N/A     62  51  67 CALM      30.09R
G MARAIS ARPRT MOSUNNY   66  48  52 SE9       30.11S
$$
MNZ029>031-032-039>041-046>048-054>057-064-012100-
   West Central Minnesota

CITY           SKY/WX    TMP DP  RH WIND       PRES   REMARKS
FERGUS FALLS   MOSUNNY   79  57  47 NW9       30.06S
WHEATON        SUNNY     81  59  47 W8        30.09S
MORRIS         SUNNY     84  61  45 NW6       30.07S
ALEXANDRIA     PTSUNNY   79  57  46 NW8       30.10R
ELBOW LAKE     FAIR      79  61  53 N9        30.08R
WADENA         SUNNY     81  59  47 NW6       30.07S
GLENWOOD       MOSUNNY   84  55  37 NW8       30.09S
APPLETON       SUNNY     86  55  35 NW8       30.07F
BENSON         SUNNY     81  63  54 CALM      30.08S
ORTONVILLE     MOSUNNY   82  57  42 N5        30.08S
MADISON        MOSUNNY   84  61  45 CALM      30.08S
WILLMAR        FAIR      82  57  42 W8        30.08F
$$
MNZ033>034-036-042>043-049>051-058-059-012100-
   Central Minnesota

CITY           SKY/WX    TMP DP  RH WIND       PRES   REMARKS
ST CLOUD       MOSUNNY   86  57  37 VRB3      30.05F
SAUK CENTRE    FAIR      81  59  46 SW7       30.08S
PAYNESVILLE    MOSUNNY   80  60  51 S10       30.08S HAZE
AITKIN         SUNNY     82  61  47 NW5       30.05S
PINE RIVER     MOSUNNY   81  55  41 NW6       30.09F
BRAINERD       MOSUNNY   78  61  55 W7        30.07F
STAPLES        MOSUNNY   81  57  44 CALM      30.06F
LONG PRAIRIE   FAIR      81  55  41 W3        30.07F
LITTLE FALLS   PTSUNNY   79  55  44 CALM      30.06F
LITCHFIELD     MOSUNNY   81  61  50 NW6       30.08S
BUFFALO        MOSUNNY   83  56  39 SW5       30.07S
MAPLE LAKE     SUNNY     83  60  46 CALM      30.07F
$$
MNZ037-044-045-052-053-012100-
   East Central Minnesota

CITY           SKY/WX    TMP DP  RH WIND       PRES   REMARKS
PRINCETON      MOSUNNY   84  59  42 NW5       30.06S
MORA           MOSUNNY   79  57  47 W5        30.08S
CAMBRIDGE      SUNNY     84  63  48 W5        30.04F
RUSH CITY      PTSUNNY   80  58  46 CALM      30.06F
MOOSE LAKE     SUNNY     79  54  41 CALM      30.04F
HINCKLEY       FAIR      79  59  50 CALM      30.06S
CLOQUET        MOSUNNY   75  57  53 S3        30.06F
MCGREGOR       CLOUDY    77  59  53 S9        30.06F
$$
MNZ071>073-080-081-089-090-097-098-012100-
   Southwest Minnesota

CITY           SKY/WX    TMP DP  RH WIND       PRES   REMARKS
MONTEVIDEO     MOSUNNY   84  63  48 N5        30.09S
GRANITE FALLS  PTSUNNY   81  61  50 N5        30.09F
CANBY          SUNNY     81  58  45 SE5       30.10F
MARSHALL       SUNNY     81  55  41 N3        30.09F
REDWOOD FALLS  PTSUNNY   85  58  39 NW5       30.08F
OLIVIA         PTSUNNY   81  59  47 NW6       30.08S
PIPESTONE      MOSUNNY   81  55  41 CALM      30.12F
WINDOM         MOSUNNY   81  54  39 CALM      30.11S
WORTHINGTON    MOSUNNY   79  57  47 NW5       30.13F
JACKSON        SUNNY     79  54  41 NW3       30.12S
TRACY          MOSUNNY   82  57  42 CALM      30.11S
SLAYTON        MOSUNNY   80  53  39 CALM      30.13S
$$
MNZ065>067-074>077-082>085-091>093-012100-
   South Central Minnesota

CITY           SKY/WX    TMP DP  RH WIND       PRES   REMARKS
MANKATO        SUNNY     81  57  44 NW7       30.08F
NEW ULM        SUNNY     81  57  44 CALM      30.08F
ST JAMES       MOSUNNY   84  55  37 CALM      30.10F
FAIRMONT       SUNNY     82  48  30 CALM      30.10F
GLENCOE        SUNNY     83  55  38 W3        30.07S
FARIBAULT      SUNNY     84  50  30 NW3       30.09S
OWATONNA       MOSUNNY   81  55  41 NW3       30.09S
WASECA         MOSUNNY   79  54  41 W6        30.11S
ALBERT LEA     SUNNY     81  52  36 W6        30.10S
$$
MNZ078>079-086>088-094>096-012100-
   Southeast Minnesota

CITY           SKY/WX    TMP DP  RH WIND       PRES   REMARKS
ROCHESTER      SUNNY     79  58  48 W6        30.10F
RED WING       MOSUNNY   84  55  37 SW7       30.05S
STANTON        MOSUNNY   83  57  41 SW5       30.06F
DODGE CENTER   MOSUNNY   79  57  47 W3        30.10S
WINONA         MOSUNNY   82  55  39 NW7       30.06S
AUSTIN         MOSUNNY   81  54  39 CALM      30.09F
PRESTON        SUNNY     78  63  58 NW3       30.10S
$$
ABBREVIATIONS USED IN REMARKS
   TC - TEMPERATURES IN CELSIUS
  WCI - WIND CHILL INDEX
   HX - HEAT INDEX
  VSB - VISIBILITY
$$



USA.gov is the U.S. government's official web portal to all federal, state and local government web resources and services.